DELTA 1 R/B, 2758

Orbit data source: Space-Track

DELTA 1 R/B, 2758 is space debris in SSO originally from a launch on Thu, 20 Apr 1967 UTC launched from the Air Force Western Test Range (AFWTR). Debris objects in space refer to the collection of defunct objects orbiting the Earth. Examples of debris include non-operational satellites, rocket bodies, and fragments generated from explosions, collisions, or faulty payload assembly.

Loading next visibility...
Identifier
2758, 1967-036B
Orbit
SSO
Country
Flag of USUS
Related business
Manufacturer
ABL
Mission
Spacecraft
Bus & Motor
ALTAIR, Unknown motor
Mass
33 kg wet, 33 kg dry
Launch date (UTC)
1967-04-20 (59 years ago)
Launch vehicle
Unknown
Launch site
Air Force Western Test Range (AFWTR)
Object type
Payload
Rocket body
Debris
Shape & HBR
Unknown
Radar Cross Section
Medium (>0.1 m² and <1 m²)

Expand to show TLE details & history
Last TLE update: 10 hours ago

TLE from 10 hours ago
0 DELTA 1 R/B
1  2758U 67036B   25354.10691637 -.00000034  00000-0  71929-4 0  9996
2  2758 101.8595 251.8882 0041062 323.2581  36.5687 12.68926946716578
Epoch: 2025-12-20T02:33Z
TLE epoch observation values (Epoch: 2025-12-20T02:33:57.574Z)
Latitude
Longitude
124.45984°
Altitude
1,363.345 km
Speed
7.189 km/s
True Right ascension
16h 47m 33s
True Declination
0° 00' 00"
Sunlit
Object was in daylight at epoch
Visualization orbit readout
Latitude
Unknown
Longitude
Unknown
Altitude
Unknown
Speed
Unknown
Apparent Right ascension
Unknown
Apparent Declination
Unknown
Sunlit
N/A
Visualization observer readout
Local Sidereal Time
11:23:32
Azimuth
Unknown
Elevation
Unknown
Doppler factor
Unknown
Orbital elements
Apogee altitude
1,415.715 km
Perigee altitude
1,351.97 km
Semi-major axis
7,761.98 km
Eccentricity
0.00411
Inclination
101.8595°
RAAN
251.8882°
Arg. of periapsis
323.2581°
True anomaly
36.8502°
Mean anomaly
36.5687°
Eccentric anomaly
36.70933°
Mean motion
3.17384 °/min
Orbital period
113.43 mins
BSTAR
0.000071929
Loading maneuver chart data...
Computing Atmospheric mass density...
Loading historical data...
Loading historical data...
Loading historical data...
Loading historical data...
Loading historical data...
Loading historical data...
Loading historical data...
Other satellites on launch #36 in the year 1967 (1967-04-20 UTC)

Documentation

Showing up to 5 results
|